Location: Observatoire
(46.1952°N, 5.3391°E)
Time: 22:48:07
(UTC+01:00)

A-11 Canister half - Pass Details

Date: 21 February 2026
Orbit: 1525 x 1683 km, 47.3° (Epoch: 5 March)

Event Time Altitude Azimuth Distance (km) Brightness Sun altitude
Rises 23:12:11 0° 292° (WNW) 4,677 12.1 -48.3°
Reaches altitude 10° 23:15:40 10° 282° (WNW) 3,695 11.3 -48.6°
Enters shadow 23:19:00 21° 265° (W) 2,931 10.6 -49.0°
Maximum altitude 23:23:17 30° 226° (SW) 2,498 - -49.4°
Drops below altitude 10° 23:31:01 10° 170° (S) 3,743 - -50.1°
Sets 23:34:37 0° 160° (SSE) 4,746 - -50.5°
